This demonstration page uses our WeatherBlox Daily Observations layout. Learn more.

Left ArrowRight Arrow

41.12389, -100.76542

Hourly Observations for September 28, 2020

Temp ( °F °C ) Dew Point ( °F °C ) Humidity (%) Winds ( mph kmh ) Pressure ( in mb ) Visibility ( mi km ) Precip ( " mm )
12:53 am 00:53 Clear 40 4.4 30 -1.1 68 68 NW 8 13 30.19 1022 10 16 0.00 0.00
1:53 am 01:53 Clear 41 5 31 -0.6 67 67 NW 8 13 30.19 1023 10 16 0.00 0.00
2:53 am 02:53 Clear 42 5.6 31 -0.6 65 65 NW 8 13 30.19 1023 10 16 0.00 0.00
3:53 am 03:53 Clear 42 5.6 31 -0.6 65 65 WNW 12 19 30.19 1022 10 16 0.00 0.00
4:53 am 04:53 Clear 44 6.7 32 0 63 63 WNW 12 19 30.20 1023 10 16 0.00 0.00
5:53 am 05:53 Clear 44 6.7 32 0 63 63 WNW 13 20 30.21 1023 10 16 0.00 0.00
6:53 am 06:53 Clear 42 5.6 31 -0.6 65 65 WNW 12 19 30.24 1024 10 16 0.00 0.00
7:53 am 07:53 Sunny 42 5.6 31 -0.6 65 65 WNW 10 17 30.27 1025 10 16 0.00 0.00
8:53 am 08:53 Sunny 48 8.9 32 0 54 54 WNW 14 22 30.29 1026 10 16 0.00 0.00
9:53 am 09:53 Sunny 56 13.3 32 0 40 40 WNW 17 28 30.29 1026 10 16 0.00 0.00
10:53 am 10:53 Sunny 60 15.6 31 -0.6 33 33 NW 24 39 30.29 1026 10 16 0.00 0.00
11:53 am 11:53 Mostly Sunny 62 16.7 29 -1.7 29 29 NNW 26 43 30.27 1025 10 16 0.00 0.00
12:53 pm 12:53 Partly Cloudy 65 18.3 30 -1.1 27 27 WNW 26 43 30.24 1024 10 16 0.00 0.00
1:53 pm 13:53 Sunny 65 18.3 29 -1.7 26 26 NW 24 39 30.22 1023 10 16 0.00 0.00
2:53 pm 14:53 Sunny 67 19.4 28 -2.2 23 23 NNW 22 35 30.19 1022 10 16 0.00 0.00
3:53 pm 15:53 Sunny 68 20 28 -2.2 22 22 NNW 23 37 30.16 1021 10 16 0.00 0.00
4:53 pm 16:53 Sunny 68 20 27 -2.8 21 21 NNW 20 31 30.14 1021 10 16 0.00 0.00
5:53 pm 17:53 Sunny 67 19.4 26 -3.3 21 21 NNW 16 26 30.14 1021 10 16 0.00 0.00
6:53 pm 18:53 Sunny 64 17.8 24 -4.4 22 22 NNW 15 24 30.16 1021 10 16 0.00 0.00
7:53 pm 19:53 Clear 55 12.8 25 -3.9 31 31 NW 5 7 30.19 1022 10 16 0.00 0.00
8:53 pm 20:53 Clear 46 7.8 25 -3.9 44 44 NW 7 11 30.20 1023 10 16 0.00 0.00
9:53 pm 21:53 Clear 41 5 26 -3.3 55 55 Calm 30.19 1022 10 16 0.00 0.00
10:53 pm 22:53 Clear 40 4.4 27 -2.8 60 60 Calm 30.19 1022 10 16 0.00 0.00
11:53 pm 23:53 Clear 37 2.8 26 -3.3 65 65 NW 7 11 30.19 1022 10 16 0.00 0.00

Powered by AerisWeather